Regional Weather Roundup
Issued by NWS

Home | Current Version | Previous Version | Text Only | Print | Product List | Glossary On
Versions: 1 2 3 4 5 6 7 8 9 10 11 12 13 14 15 16 17 18 19 20 21 22 23 24 25 26 27 28 29 30 31 32 33 34 35 36 37 38 39 40 41 42 43 44 45 46 47 48 49 50
000
ASUS43 KMPX 051010
RWRMN
WEATHER ROUNDUP FOR MINNESOTA
NATIONAL WEATHER SERVICE TWIN CITIES/CHANHASSEN MN
400 AM CST THU MAR 05 2015


NOTE: "FAIR" INDICATES FEW OR NO CLOUDS BELOW 12,000 FEET WITH NO
SIGNIFICANT WEATHER AND/OR OBSTRUCTIONS TO VISIBILITY. N/A MEANS
CURRENT SKY AND/OR WEATHER CONDITIONS ARE NOT AVAILABLE.

MNZ060>063-068>070-051100-
   Twin Cities Metro

CITY           SKY/WX    TMP DP  RH WIND       PRES   REMARKS
TWIN CITIES    CLEAR     -5 -12  72 W5        30.44F WCI -16
ST PAUL        FAIR      -4 -11  72 NW6       30.46F WCI -16
CRYSTAL        CLEAR     -6 -13  71 W3        30.43S
BLAINE         CLEAR     -8 -11  84 CALM      30.42S
LAKEVILLE      CLEAR     -9 -13  84 W5        30.43S WCI -21
EDEN PRAIRIE   CLEAR     -6 -12  75 NW5       30.43S WCI -17
SOUTH ST PAUL  FAIR      -4 -11  72 CALM      30.44S
LAKE ELMO      FAIR      -6 -13  71 CALM      30.43S
$$
MNZ001>005-007-008-013>017-022>024-027-028-051100-
   Northwest Minnesota

CITY           SKY/WX    TMP DP  RH WIND       PRES   REMARKS
BEMIDJI        CLEAR    -15 -20  79 SW6       30.32F WCI -30
HALLOCK        MOCLDY   -17 -22  76 S7        30.34F WCI -33
ROSEAU         PTCLDY   -13 -18  77 SW8       30.31F WCI -30
WARROAD        PTCLDY   -15 -20  76 SW7       30.30S WCI -31
THIEF RVR FALL MOCLDY   -15 -26  58 SW5       30.34F WCI -27
CROOKSTON      PTCLDY   -11 -17  77 SW7       30.39F WCI -26
FOSSTON        PTCLDY   -18 -26  69 S6        30.34F WCI -33
DETROIT LAKES  CLEAR     -9 -15  77 SW3       30.36F
MOORHEAD       FAIR      -8 -11  84 S3        30.41F
PARK RAPIDS    FAIR     -15 -21  74 CALM      30.33F
MAHNOMEN       FAIR     -14 -19  79 S8        30.36S WCI -31
$$
MNZ006-009>011-018-025>026-051100-
   North Central Minnesota

CITY           SKY/WX    TMP DP  RH WIND       PRES   REMARKS
BAUDETTE       CLEAR    -18 -23  77 SW6       30.29F WCI -33
FLAG ISLAND    CLEAR    -18 -24  76 S5        30.28S WCI -31
INTL FALLS     CLEAR    -21 -26  77 SW6       30.31S WCI -36
WASKISH        CLEAR    -13 -17  84 CALM      30.32S
BIG FORK       CLEAR    -26 -33  68 CALM      30.31F
LONGVILLE      FAIR     -26 -33  68 CALM      30.35S
GRAND RAPIDS   CLEAR    -17 -20  83 CALM      30.30F
CRANE LAKE     CLEAR    -27 -35  68 CALM      30.35S
ORR            CLEAR    -17 -24  70 CALM      30.28S
COOK           CLEAR    -27 -33  75 CALM      30.31S
WALKER         FAIR     -17 -21  78 SW3       30.33F
$$
MNZ012-019>021-037-051100-
   Northeast Minnesota

CITY           SKY/WX    TMP DP  RH WIND       PRES   REMARKS
DULUTH         PTCLDY   -11 -17  75 NW7       30.30F WCI -26
ELY            CLEAR    -26 -29  83 CALM      30.28F
HIBBING        PTCLDY   -26 -33  69 NW3       30.30F
EVELETH        PTCLDY   -20 -27  69 CALM      30.31F
DULUTH HARBOR  PTCLDY   -11 -18  70 CALM      30.42S
TWO HARBORS    CLEAR    -11 -18  70 CALM      30.31S
SILVER BAY     CLEAR    -20 -27  69 CALM      30.30S
GRAND MARAIS     N/A     -5 -15  62 NW13G24   30.34S WCI -24
G MARAIS ARPRT CLEAR    -15 -20  76 W3        30.19F
$$
MNZ029>031-032-039>041-046>048-054>057-064-051100-
   West Central Minnesota

CITY           SKY/WX    TMP DP  RH WIND       PRES   REMARKS
FERGUS FALLS   CLEAR     -9 -17  70 CALM      30.44F
WHEATON        PTCLDY   -13 -18  77 SW3       30.44F
MORRIS         FAIR     -11 -17  77 W5        30.40F WCI -23
ALEXANDRIA     PTCLDY   -12 -16  82 W6        30.36F WCI -26
ELBOW LAKE     FAIR     -13 -17  81 CALM      30.39F
WADENA         CLEAR    -15 -20  76 W5        30.35F WCI -27
GLENWOOD       PTCLDY   -15 -18  84 W3        30.38F
APPLETON       FAIR     -11 -17  77 W5        30.44F WCI -23
BENSON         CLEAR    -15 -20  76 CALM      30.41F
ORTONVILLE     PTCLDY    -9 -17  70 NW3       30.42F
MADISON        CLEAR     -8 -15  71 CALM      30.44F
WILLMAR        FAIR      -9 -15  77 CALM      30.42F
$$
MNZ033>034-036-042>043-049>051-058-059-051100-
   Central Minnesota

CITY           SKY/WX    TMP DP  RH WIND       PRES   REMARKS
ST CLOUD       PTCLDY   -10 -14  82 NW5       30.41F WCI -22
SAUK CENTRE    FAIR     -14 -18  83 CALM      30.39F
PAYNESVILLE    CLEAR    -15 -19  81 SW5       30.41F WCI -27
AITKIN         PTCLDY   -17 -24  70 CALM      30.35F
PINE RIVER     PTCLDY   -24 -29  76 CALM      30.37F
BRAINERD       PTCLDY   -25 -30  78 S3        30.37F
STAPLES        PTCLDY   -20 -26  76 CALM      30.36F
LONG PRAIRIE   FAIR     -17 -22  76 CALM      30.38F
LITTLE FALLS   PTCLDY   -18 -26  69 CALM      30.41F
LITCHFIELD     CLEAR     -8 -11  84 CALM      30.42S
BUFFALO        CLEAR    -10 -14  80 CALM      30.44S
MAPLE LAKE     CLEAR     -9 -13  83 W3        30.43R
$$
MNZ037-044-045-052-053-051100-
   East Central Minnesota

CITY           SKY/WX    TMP DP  RH WIND       PRES   REMARKS
PRINCETON      PTCLDY   -11 -17  77 CALM      30.41S
MORA           CLEAR    -18 -24  76 NW3       30.41S
CAMBRIDGE      CLEAR    -15 -20  76 CALM      30.40S
RUSH CITY      MOCLDY   -14 -19  79 CALM      30.42S
MOOSE LAKE     CLEAR    -13 -18  77 CALM      30.36S
HINCKLEY       FAIR     -11 -17  77 W3        30.39S
CLOQUET        PTCLDY   -13 -18  77 W8        30.33S WCI -30
MCGREGOR       PTCLDY   -15 -18  84 W3        30.36S
$$
MNZ071>073-080-081-089-090-097-098-051100-
   Southwest Minnesota

CITY           SKY/WX    TMP DP  RH WIND       PRES   REMARKS
MONTEVIDEO     CLEAR     -9 -15  77 NW6       30.45S WCI -23
GRANITE FALLS  CLEAR    -11 -16  77 SW6       30.46S WCI -25
CANBY          CLEAR     -8 -14  74 W5        30.44S WCI -19
MARSHALL       CLEAR     -8 -15  71 W7        30.43S WCI -22
REDWOOD FALLS  CLEAR     -9 -15  75 W6        30.44F WCI -22
OLIVIA         CLEAR     -8 -13  77 CALM      30.43F
PIPESTONE      PTCLDY   -11 -15  84 CALM      30.37F
WINDOM         CLEAR     -9 -15  77 CALM      30.40F
WORTHINGTON    CLEAR    -11 -17  77 W6        30.41F WCI -25
JACKSON        CLEAR     -8 -15  71 W6        30.40F WCI -21
TRACY          CLEAR     -6 -13  71 W6        30.41F WCI -19
SLAYTON        CLEAR    -11 -18  71 CALM      30.39F
$$
MNZ065>067-074>077-082>085-091>093-051100-
   South Central Minnesota

CITY           SKY/WX    TMP DP  RH WIND       PRES   REMARKS
MANKATO        CLEAR     -6 N/A N/A NW6       30.43S WCI -18
NEW ULM        CLEAR    -11 -17  77 W6        30.44S WCI -25
ST JAMES       CLEAR     -6 -11  77 W7        30.45S WCI -20
FAIRMONT       CLEAR     -6 -11  77 NW3       30.41S
GLENCOE        CLEAR     -9 -13  80 MISG      30.43S
FARIBAULT      CLEAR     -9 -15  77 W3        30.42S
OWATONNA       CLEAR     -9 -15  77 CALM      30.41S
WASECA         CLEAR     -9 -13  84 CALM      30.43S
ALBERT LEA     CLEAR     -8 -13  77 W3        30.40S
$$
MNZ078>079-086>088-094>096-051100-
   Southeast Minnesota

CITY           SKY/WX    TMP DP  RH WIND       PRES   REMARKS
ROCHESTER      CLEAR    -10 -16  74 NW9       30.38S WCI -27
RED WING       CLEAR    -13 -18  77 CALM      30.43F
STANTON        CLEAR     -7 -13  75 CALM      30.42F
DODGE CENTER   PTCLDY    -6  -9  84 NW8       30.37S WCI -21
WINONA         CLEAR     -2  -9  71 CALM      30.46R
AUSTIN         CLEAR     -8 -11  84 NW5       30.39S WCI -19
PRESTON        CLEAR    -10 -16  76 NW6       30.38S WCI -24
$$
ABBREVIATIONS USED IN REMARKS
   TC - TEMPERATURES IN CELSIUS
  WCI - WIND CHILL INDEX
   HX - HEAT INDEX
  VSB - VISIBILITY
$$


USA.gov is the U.S. government's official web portal to all federal, state and local government web resources and services.